Lapse_Rate
4.5 4.6 3.7 4.2 6.3 6.5 6.5 6.5 6.5 6.5 6.5 5.4 5.5 6.2 6.3 6.2 6.5 6.5 6.1 7.0 5.3 5.0 5.2 5.8 6.0 5.3 5.4 5.7 5.7 5.5 5.4 5.6 5.7 6.0 6.8 6.7 6.4 6.0 6.4 6.4 6.4 6.4 6.3 6.6 6.4 6.5 6.6 6.8 7.2
3.9 5.5 4.0 3.6 6.5 6.5 6.5 6.5 6.5 6.5 5.8 5.9 5.2 5.7 6.0 6.5 7.3 6.2 6.6 8.1 5.3 5.4 5.3 5.3 5.8 5.6 5.4 5.5 5.5 5.4 4.9 5.4 6.0 6.0 6.5 6.6 6.4 6.4 6.3 6.5 6.5 6.4 6.3 6.2 6.1 6.4 6.8 7.1 7.0
4.2 5.9 4.6 6.5 6.5 6.5 6.5 6.5 6.5 6.0 5.8 6.2 5.7 5.8 6.1 6.6 6.8 6.9 7.3 7.8 5.8 5.6 5.4 5.1 5.5 5.8 5.5 5.6 5.6 5.5 5.5 5.7 5.6 6.0 6.2 6.7 6.4 6.6 6.6 6.4 6.3 6.2 6.3 6.1 6.0 6.0 6.8 7.0 7.4
5.0 4.0 4.3 6.5 6.5 6.5 6.5 6.5 6.1 6.3 6.0 6.4 6.1 6.4 6.5 6.6 6.8 7.2 8.0 7.4 5.6 5.3 5.3 5.1 5.5 5.9 5.6 5.7 5.7 5.7 5.9 6.0 6.0 5.9 6.1 6.4 6.5 6.5 6.7 6.6 6.3 6.2 6.1 5.9 5.9 6.3 6.6 6.9 7.4
4.4 3.9 6.5 6.5 6.5 6.5 6.5 5.6 5.5 6.5 5.7 6.0 5.8 6.4 6.4 7.3 7.0 6.9 6.6 7.0 5.5 5.7 5.4 4.9 5.3 5.7 5.8 6.2 6.2 6.0 6.3 6.4 6.2 6.2 6.1 5.9 6.8 6.7 6.5 6.5 6.2 6.0 6.3 6.1 6.3 6.5 6.8 7.1 7.5
4.3 4.0 6.5 6.5 6.5 6.5 6.5 5.1 5.6 6.3 5.8 5.8 5.7 5.7 6.4 6.6 6.5 7.0 5.6 4.6 6.3 5.4 4.8 4.9 4.9 5.3 5.5 6.1 6.3 6.2 6.1 6.4 6.4 6.4 6.4 5.9 6.3 6.5 6.4 6.4 6.2 6.2 6.0 6.4 6.5 6.4 7.1 7.4 7.5
6.1 6.5 6.5 6.5 6.5 6.5 6.5 5.0 5.8 6.3 6.3 6.2 6.5 6.5 6.5 6.1 6.5 6.3 5.3 4.0 4.8 5.7 5.0 5.5 5.7 5.7 5.6 5.8 6.1 6.2 6.2 6.3 6.5 6.7 6.5 6.3 6.4 6.3 6.4 6.2 6.3 6.0 6.0 6.2 6.5 6.8 7.4 7.6 7.5
4.6 6.3 6.5 6.5 6.5 6.5 6.4 6.3 5.7 5.8 6.4 7.2 7.0 6.4 6.0 6.1 6.8 5.6 4.8 4.4 3.8 5.0 5.4 4.3 5.1 5.3 5.2 5.5 5.9 6.3 6.3 6.2 6.4 6.6 6.7 6.5 6.2 6.2 6.3 6.2 6.3 6.1 6.1 6.2 6.7 6.9 7.6 8.1 7.9
6.6 6.5 6.5 6.5 6.5 6.5 6.1 6.5 6.4 6.1 6.1 6.1 6.8 5.8 5.7 5.0 6.0 6.3 4.4 3.8 4.0 3.3 4.1 4.9 4.5 4.9 4.8 4.7 5.7 6.2 6.8 6.5 6.3 6.5 6.9 6.4 5.9 6.2 6.2 6.2 6.2 6.2 6.2 6.2 6.7 7.1 7.0 7.9 7.8
5.7 6.5 6.5 6.5 6.5 6.5 6.3 6.1 6.1 6.3 6.1 5.8 5.7 4.5 5.3 5.7 6.3 5.6 5.6 4.0 5.2 5.4 4.6 4.7 5.2 5.2 4.7 5.1 4.9 5.0 5.7 5.4 5.5 5.4 3.8 3.9 4.2 4.4 6.2 6.4 6.3 6.4 6.2 6.1 6.5 6.7 6.7 7.0 6.6
6.0 6.5 6.5 6.3 6.2 5.7 6.0 5.9 6.4 6.2 6.5 5.5 6.0 5.7 6.1 5.8 6.8 7.0 5.7 4.4 4.2 4.6 3.9 4.7 4.8 4.8 4.4 3.8 2.9 2.7 3.4 3.8 4.4 3.7 3.3 2.8 3.2 4.1 4.1 4.7 5.8 5.7 6.2 5.8 6.2 6.9 6.3 6.1 6.7
6.5 5.8 5.9 5.9 6.1 6.4 6.4 6.0 5.7 5.7 4.8 4.8 4.6 5.5 6.4 6.4 6.2 6.4 6.8 6.3 6.8 5.8 4.6 4.6 4.5 4.9 4.2 3.2 2.7 2.8 3.1 3.1 3.8 3.9 3.2 2.6 3.0 2.8 3.1 3.8 3.9 4.7 4.8 4.7 5.0 5.7 6.3 6.2 7.0
6.5 6.4 5.6 5.4 5.4 5.5 6.0 5.7 6.1 5.2 4.8 5.1 5.1 4.7 5.3 5.8 6.5 7.1 6.9 7.1 7.1 7.0 6.3 3.7 3.8 3.7 4.2 3.9 2.9 2.7 2.9 3.1 3.8 3.1 3.7 3.0 2.5 2.0 2.6 3.3 3.3 4.3 4.5 4.6 4.6 5.1 5.3 6.5 7.2
5.8 6.3 5.9 5.8 5.7 5.7 6.2 5.8 5.5 4.9 5.0 4.7 5.2 4.4 4.6 5.4 5.6 6.4 6.0 6.0 5.0 5.5 5.7 4.6 4.1 3.7 3.6 3.9 3.4 2.5 2.7 2.4 2.8 2.9 2.3 2.8 2.5 2.0 2.2 2.5 3.4 4.1 4.7 5.4 5.6 5.5 5.2 4.3 7.2
6.0 6.5 6.5 5.9 5.5 6.3 5.2 6.5 6.5 4.4 4.3 4.5 4.5 4.0 4.6 4.6 5.2 5.5 5.7 5.4 4.3 5.2 5.4 4.8 5.1 4.3 3.8 3.9 3.7 3.2 2.8 2.3 2.2 2.1 2.1 2.4 2.1 1.7 2.0 1.8 3.1 3.7 4.4 6.1 6.0 4.9 4.7 4.7 6.5
6.5 6.5 6.5 6.5 6.3 5.8 5.8 6.5 6.5 4.0 3.5 4.2 3.4 2.8 3.9 4.3 4.7 4.4 4.4 4.2 3.7 3.4 4.7 4.6 6.2 6.6 4.8 3.9 3.4 4.4 4.0 2.2 2.7 2.4 1.8 2.9 2.4 1.9 1.9 2.4 3.1 4.5 3.9 4.0 5.7 4.6 4.1 4.8 5.2
6.5 6.5 6.5 6.5 6.2 6.5 6.5 6.5 6.3 5.1 5.1 4.4 3.2 3.1 3.5 3.3 2.7 2.8 3.6 3.3 3.5 3.7 4.1 5.0 4.5 4.9 5.4 4.7 3.7 4.5 5.5 4.7 3.8 3.3 2.5 2.6 2.7 2.2 2.4 3.5 4.0 4.8 4.0 3.1 5.6 4.1 4.6 4.7 5.1
6.5 6.5 6.5 6.5 6.5 6.5 6.5 6.5 6.5 4.1 4.5 3.8 3.0 3.2 4.0 2.5 2.9 3.8 3.6 3.5 3.0 2.9 3.6 4.5 5.0 4.4 5.0 4.4 4.0 4.1 5.6 4.7 4.9 4.2 3.5 3.5 3.0 3.6 3.5 3.5 4.3 4.7 4.6 5.0 5.4 5.0 4.2 3.9 5.2
6.5 6.5 6.5 6.5 6.5 6.5 6.5 6.5 6.5 5.1 4.3 4.4 3.3 2.7 3.5 2.3 3.6 3.2 3.0 2.5 2.1 3.3 4.1 4.9 5.8 5.7 4.4 3.9 4.3 4.2 5.3 5.7 5.3 4.4 4.5 3.5 3.4 3.9 4.0 4.2 4.1 4.9 4.3 6.4 6.1 4.5 5.1 4.6 4.7
6.5 6.5 6.5 6.5 6.5 6.5 6.5 6.5 6.5 6.5 5.8 3.7 3.4 3.6 3.2 3.0 2.2 2.0 3.0 3.7 4.2 3.9 3.8 4.4 5.4 5.6 5.5 4.2 4.0 4.0 4.7 4.9 3.9 3.8 4.2 4.2 3.4 4.0 3.8 4.4 4.4 4.9 7.1 6.6 6.3 5.6 4.5 3.8 4.4
6.5 6.5 6.5 6.5 6.5 6.5 6.5 6.5 6.5 6.5 5.8 4.6 4.1 3.4 2.8 2.7 2.6 4.3 6.2 7.0 6.5 5.3 4.7 4.9 5.8 5.7 5.5 4.6 3.7 4.0 3.8 3.8 3.9 3.8 3.0 3.3 3.6 4.4 4.4 4.5 4.7 5.3 7.5 7.0 6.3 5.8 6.1 4.6 3.6
6.5 6.5 6.5 6.5 6.5 6.5 6.5 6.5 6.5 6.5 6.5 6.5 4.9 2.9 3.1 3.1 4.7 6.5 7.1 6.6 6.2 5.5 5.5 5.7 6.3 5.7 5.4 4.7 4.3 4.2 4.3 4.2 3.5 2.9 2.5 2.8 4.1 4.3 5.6 5.8 5.3 6.2 7.0 6.2 6.4 5.8 5.4 4.8 5.9
6.5 6.5 6.5 6.5 6.5 6.5 6.5 6.5 6.5 6.5 6.5 6.5 6.1 4.7 3.8 4.0 5.7 7.5 7.1 6.1 6.3 6.1 4.9 4.6 4.8 6.1 5.3 4.6 4.3 3.7 3.3 2.9 2.7 2.7 2.7 3.4 2.7 2.9 4.1 5.1 5.2 4.6 4.8 6.4 6.6 5.8 6.1 5.3 4.8
6.5 6.5 6.5 6.5 6.5 6.5 6.5 6.5 6.5 6.5 6.5 6.5 6.2 5.8 4.8 4.6 6.8 7.7 6.8 5.9 5.5 5.7 5.2 4.6 4.1 4.1 4.6 4.8 4.3 3.4 2.7 3.1 3.0 2.8 4.1 3.9 2.9 1.7 3.2 3.7 4.4 5.0 4.2 6.0 5.9 5.6 6.3 5.7 4.8
6.5 6.5 6.5 6.5 6.5 6.5 6.5 6.5 6.5 6.5 6.5 6.5 6.5 6.0 5.0 4.9 7.0 6.6 6.1 5.7 5.5 5.3 5.3 5.1 4.2 3.8 3.8 4.7 4.0 3.1 2.7 2.8 3.7 4.2 4.3 4.3 3.2 3.3 2.1 3.5 4.0 4.5 4.6 5.9 5.9 5.5 6.1 5.7 5.1
6.5 6.5 6.5 6.5 6.5 6.5 6.5 6.5 6.5 6.5 6.0 5.9 6.4 5.6 5.4 5.2 7.1 6.4 5.7 5.8 5.4 5.6 5.7 5.1 4.3 3.8 3.7 3.7 4.0 3.7 3.4 3.2 4.0 4.2 3.8 3.4 3.3 2.6 2.5 2.2 2.8 3.7 4.0 4.8 5.9 5.1 5.0 5.3 5.3
6.5 6.5 6.5 6.5 6.5 6.5 6.5 6.5 6.5 6.5 6.5 6.3 6.4 6.1 5.4 5.2 7.2 6.5 5.9 5.9 5.4 5.6 5.6 5.3 4.7 4.5 4.0 3.6 3.2 2.7 2.7 3.2 3.5 3.3 3.5 3.6 3.2 2.6 2.0 2.1 2.2 3.0 3.2 4.3 5.0 4.4 4.5 5.4 4.2
6.5 6.5 6.5 6.5 6.5 6.5 6.5 6.5 6.5 6.5 6.5 6.5 6.5 6.3 5.7 5.6 6.7 6.7 6.0 5.7 5.5 5.5 5.5 5.2 4.8 4.6 4.1 3.2 3.4 3.0 2.5 3.1 3.4 3.3 3.1 3.3 3.2 2.5 2.5 2.3 2.9 3.0 2.7 3.1 3.2 3.1 3.6 3.8 3.4
6.5 6.5 6.5 6.5 6.5 6.5 6.5 6.5 6.5 6.5 6.5 6.5 6.5 6.3 5.7 5.9 6.5 6.5 6.0 5.6 5.1 5.1 4.9 5.0 5.1 4.4 3.7 3.1 3.0 2.7 3.1 2.5 2.6 2.3 2.3 2.4 2.3 2.5 2.6 2.3 2.4 2.5 2.5 2.4 2.5 2.7 2.9 2.4 1.9
6.5 6.5 6.5 6.5 6.5 6.5 6.5 6.5 6.5 6.5 6.5 6.3 6.1 6.2 5.7 6.1 6.9 6.0 5.9 5.5 5.0 5.0 4.9 4.8 4.7 4.3 4.0 3.3 3.1 3.1 3.0 2.7 2.3 1.8 2.2 2.2 2.0 1.9 2.0 2.2 1.9 2.7 2.1 2.0 2.2 2.5 2.7 2.8 2.5
Wind_Speed
9 14 2 3 4 4 4 4 2 5 4 3 2 2 9 4 3 4 4 5 18 16 19 19 19 17 17 15 14 14 13 10 12 10 9 12 12 14 12 12 17 18 19 20 21 19 18 19 19
5 6 3 2 4 2 5 3 6 6 4 4 6 3 5 3 4 5 3 3 20 17 20 19 19 17 16 16 15 14 15 14 12 11 11 9 14 14 16 14 16 18 19 20 20 17 16 17 17
4 4 2 3 3 4 2 3 5 5 6 3 4 5 3 2 5 5 4 7 17 13 20 19 20 18 16 15 15 15 16 16 15 12 11 8 12 15 14 16 16 17 18 19 18 16 16 15 20
1 4 3 2 6 6 4 4 6 4 3 4 2 6 4 4 2 2 2 8 14 12 18 21 21 19 17 17 17 17 17 16 15 15 12 10 9 13 14 15 16 17 18 18 17 17 17 17 22
2 2 1 2 6 5 2 7 6 4 6 3 1 2 4 4 6 6 6 8 14 12 17 23 24 21 19 18 18 18 18 18 16 14 14 13 9 12 14 15 16 17 18 19 18 18 17 19 23
3 3 1 3 4 6 2 6 6 3 3 5 4 5 2 3 6 3 6 9 5 14 16 20 24 23 21 18 19 18 17 19 17 16 13 12 11 13 14 14 16 17 18 19 19 19 19 20 22
3 3 4 3 5 5 3 5 5 1 2 2 2 4 1 4 5 5 6 7 9 3 9 13 18 19 21 19 16 15 17 18 18 17 15 13 12 14 14 15 15 17 18 18 19 19 20 22 27
3 3 3 4 3 2 2 3 5 5 2 1 2 2 4 3 1 5 6 7 7 7 3 5 10 14 15 14 17 15 15 16 18 17 16 16 13 14 13 14 15 17 17 17 19 19 19 20 24
2 3 3 3 4 2 2 3 1 5 1 2 2 5 6 8 5 2 3 3 4 5 6 4 5 8 11 12 13 15 14 15 17 18 13 15 14 11 12 13 14 16 17 17 19 20 14 15 26
3 3 3 1 1 3 2 4 3 2 2 3 4 7 6 7 4 4 3 4 1 3 3 3 5 6 9 10 9 10 12 13 15 13 15 18 17 14 5 13 14 16 18 17 19 17 14 11 20
4 4 3 5 2 4 5 4 1 2 4 3 0 5 3 5 3 1 4 5 5 5 4 6 5 7 6 5 7 7 12 11 13 16 15 19 16 16 14 9 7 15 16 14 14 14 9 7 21
2 8 6 7 3 2 3 4 6 3 8 8 8 6 4 4 1 4 2 5 3 4 4 4 5 5 5 7 4 8 8 13 9 13 16 18 11 10 9 8 12 6 13 12 12 11 7 5 23
6 6 7 8 7 6 4 6 5 8 9 5 7 7 5 2 1 1 2 0 2 3 4 7 7 7 6 6 6 6 6 11 16 20 9 17 13 7 9 4 7 10 7 12 9 9 8 7 21
4 3 5 5 6 6 7 7 4 7 9 7 9 8 7 6 6 1 3 4 5 5 4 5 6 7 6 5 8 5 9 11 14 17 18 16 15 15 14 10 1 8 9 7 13 9 5 6 20
4 6 7 9 7 7 7 6 9 12 8 10 9 9 9 9 9 8 7 8 8 6 6 6 5 6 7 6 8 6 10 12 8 12 17 18 19 12 8 8 4 7 6 10 9 8 10 8 17
5 4 1 7 7 7 9 9 9 10 10 11 10 8 8 9 10 6 5 7 7 7 7 5 4 3 5 6 5 5 9 10 9 13 12 15 13 11 9 7 6 4 6 6 6 6 6 9 11
3 4 7 8 7 6 7 7 9 5 5 8 9 9 7 6 10 7 6 6 7 6 7 7 5 7 3 4 5 5 8 8 10 13 15 15 13 13 9 8 11 19 8 4 4 3 7 8 9
5 4 6 5 4 4 5 11 9 9 7 10 9 8 3 10 6 4 5 6 6 6 7 8 5 6 5 4 4 4 4 4 11 10 10 12 13 15 12 7 10 16 8 5 1 5 2 5 7
8 6 7 6 4 6 11 10 11 10 7 9 9 8 8 8 4 5 6 7 10 9 9 7 5 3 3 3 3 4 5 4 2 4 14 15 13 16 14 8 8 14 7 11 9 5 6 2 5
10 9 5 5 7 2 5 11 10 10 9 8 10 8 8 6 7 8 9 7 6 7 6 6 4 3 3 2 2 2 4 3 2 1 4 11 12 16 14 10 9 12 11 9 7 8 4 3 1
8 4 4 7 7 4 5 9 8 5 4 10 9 9 8 8 8 7 6 5 7 8 7 6 6 6 6 6 4 3 4 3 3 1 2 4 8 13 15 15 10 11 11 11 10 9 11 5 2
5 7 5 3 2 4 5 6 6 4 5 7 10 9 8 8 6 5 4 4 5 6 7 6 5 5 5 7 6 7 4 3 3 3 2 2 4 11 17 17 14 11 11 12 11 8 8 8 9
7 4 3 0 2 4 2 2 7 3 6 8 8 10 9 8 8 5 2 4 4 5 5 8 8 2 6 6 7 5 4 3 2 1 5 5 2 5 9 14 14 8 5 11 12 10 11 8 4
6 4 2 2 3 3 6 9 5 4 9 8 8 11 11 9 8 5 4 5 5 6 6 7 8 8 7 3 6 7 6 5 4 3 4 3 3 4 4 9 11 11 9 4 8 9 9 10 6
6 7 2 2 1 6 4 5 11 6 10 15 19 14 12 9 8 5 6 6 6 7 6 6 6 7 8 7 6 6 5 3 2 2 3 5 4 4 5 5 11 9 10 7 8 8 9 7 6
7 8 6 6 4 5 5 5 5 2 4 14 16 15 12 9 8 7 6 6 4 5 6 7 7 6 6 7 6 5 6 2 2 2 3 4 4 6 9 8 7 7 7 6 6 5 5 6 5
5 8 7 2 2 2 4 6 3 3 8 12 15 15 12 10 10 8 7 6 3 4 5 4 5 6 6 6 5 5 5 4 4 4 4 4 6 8 12 11 9 8 6 6 5 4 5 5 4
9 6 3 1 3 5 6 5 6 8 11 13 15 14 12 11 9 8 8 7 3 4 5 5 5 5 6 6 6 6 6 6 6 5 6 8 7 10 11 9 8 8 5 5 8 5 6 9 4
5 6 3 5 5 5 3 5 5 18 17 17 13 13 14 12 10 9 8 7 5 4 5 4 4 6 5 6 6 7 6 7 7 7 7 8 8 7 9 8 7 7 6 6 9 9 7 10 9
14 18 15 5 5 5 3 6 3 10 16 15 13 13 14 13 11 9 8 7 7 5 6 4 4 6 6 6 7 7 7 7 8 9 8 8 9 8 9 9 8 7 7 6 8 8 7 9 8
Wind_Direction
320 305 308 24 43 67 266 262 174 75 53 341 355 47 121 31 40 142 244 203 137 151 156 160 160 162 161 158 149 141 134 130 129 133 113 117 109 109 99 109 112 104 104 98 96 95 93 88 74
314 311 39 69 90 70 274 233 89 84 136 2 328 302 76 83 58 108 75 150 148 153 155 158 161 163 165 162 157 151 143 139 138 141 129 122 117 110 110 102 104 108 106 102 100 98 93 82 68
308 219 79 119 171 188 225 84 89 36 60 16 344 29 78 50 56 132 168 163 143 150 155 159 159 164 163 160 157 154 150 144 143 145 138 121 119 116 112 110 107 109 108 105 105 105 96 75 74
217 14 6 88 255 270 270 150 98 33 1 122 322 71 60 345 77 55 115 150 134 151 153 159 161 166 168 166 163 161 158 150 147 147 144 138 120 126 118 115 113 114 113 109 111 109 97 82 86
39 70 71 223 260 254 157 119 83 44 341 79 33 50 77 18 71 35 28 146 138 156 161 162 166 169 173 173 170 170 167 155 151 149 149 147 138 127 123 121 123 120 118 118 118 114 101 97 92
3 101 93 229 266 274 100 125 101 60 318 316 51 93 67 350 54 16 32 63 116 156 160 167 171 170 174 179 181 173 170 161 155 149 147 148 146 137 130 129 127 125 123 124 125 118 109 104 99
124 97 228 250 249 306 112 124 72 152 306 22 111 84 146 22 358 12 44 40 62 94 150 165 174 172 175 176 183 176 172 168 157 151 151 148 144 141 137 133 131 127 127 131 134 121 116 97 106
112 103 271 243 250 272 76 62 122 83 47 330 84 128 188 217 28 83 52 16 49 50 131 146 168 166 173 182 183 185 183 179 163 153 150 138 132 139 142 137 135 130 128 130 128 124 119 107 100
58 57 252 270 15 13 87 109 153 143 57 345 241 123 178 177 177 185 91 41 354 67 63 109 141 167 179 178 193 186 186 185 172 154 150 126 129 136 146 140 140 136 135 134 133 129 115 106 94
113 156 242 327 99 359 37 143 124 92 278 287 281 85 146 136 127 203 223 170 203 92 141 114 161 172 177 177 173 176 176 169 170 134 89 65 50 30 174 153 146 144 142 143 135 138 126 120 100
203 212 248 298 73 49 332 344 282 249 292 246 262 126 132 111 144 2 59 165 196 208 150 164 143 178 169 141 131 110 139 137 142 121 107 98 76 33 20 15 162 152 154 138 145 147 143 152 109
258 236 259 279 147 132 289 307 307 213 228 199 151 141 134 157 220 201 145 137 139 123 191 192 163 143 145 128 136 141 158 156 137 135 127 109 86 60 0 359 351 181 154 152 157 157 168 207 119
226 242 256 266 187 185 225 267 250 277 272 254 169 135 139 316 280 198 106 171 177 220 215 183 174 166 164 150 144 147 169 172 159 148 162 130 130 145 188 247 333 326 195 166 171 172 195 158 130
271 266 287 276 258 217 205 237 191 244 243 242 171 171 175 213 233 108 9 298 298 264 265 211 181 178 166 158 146 162 168 165 163 154 159 163 163 169 173 152 104 301 300 212 175 173 138 97 131
290 289 300 265 247 235 200 277 229 250 226 236 206 183 190 206 189 197 213 239 228 226 166 184 213 171 180 184 157 166 170 169 159 154 165 176 175 191 153 136 140 267 268 225 147 118 110 100 127
303 312 284 269 227 236 157 253 260 266 257 213 194 202 211 214 204 197 16 29 13 358 321 125 115 248 203 172 170 171 168 171 166 161 175 201 202 148 149 147 164 167 340 324 129 124 115 114 122
267 246 215 302 215 147 159 241 250 259 173 191 199 211 217 234 57 48 38 24 5 356 338 293 149 117 231 223 189 168 164 173 175 168 186 199 202 155 154 169 164 159 156 285 155 107 127 121 123
217 242 290 268 274 141 211 246 251 262 217 220 212 205 178 101 101 92 52 19 8 350 328 277 213 143 102 275 212 172 168 169 168 181 182 187 193 181 172 176 162 152 169 186 215 118 61 123 123
243 248 251 272 220 190 229 244 252 245 248 233 207 193 123 110 137 62 44 25 6 356 341 279 176 209 127 215 186 181 167 192 170 161 183 187 190 191 176 183 156 158 181 178 167 121 119 73 116
247 241 273 287 314 292 267 265 261 249 229 200 179 132 121 98 56 38 30 15 354 327 320 341 241 218 198 165 160 168 154 130 118 105 174 190 178 187 176 183 168 172 183 150 164 140 118 88 69
268 221 257 250 281 292 298 297 267 312 120 105 110 116 103 102 79 56 29 11 352 337 324 300 264 226 214 175 114 91 83 74 79 166 208 223 196 181 188 179 164 169 164 160 148 143 129 136 74
251 242 238 264 53 254 83 288 272 250 143 138 136 123 121 104 96 86 42 16 352 330 326 351 330 220 210 154 133 147 158 153 187 196 145 159 204 186 187 179 169 176 158 153 152 143 135 129 154
222 191 173 276 332 341 140 284 273 141 177 178 148 136 129 129 119 102 86 52 0 348 9 17 23 30 137 148 154 148 143 112 114 197 154 139 91 133 156 175 160 125 130 146 148 143 149 135 141
142 107 5 15 90 295 218 178 273 213 190 169 137 145 142 132 123 130 119 76 37 14 30 54 38 31 19 118 110 118 130 160 169 192 171 162 125 83 88 153 153 137 117 166 138 135 151 150 133
104 87 322 344 18 231 268 172 243 285 174 169 157 153 145 140 133 120 122 87 49 30 20 51 60 53 40 49 73 97 105 121 221 241 177 154 142 127 80 126 126 140 142 142 145 137 149 156 146
183 153 166 212 205 253 298 240 257 236 117 135 140 141 139 142 139 138 120 105 89 69 50 49 54 55 62 75 84 79 83 78 102 124 124 145 141 127 107 88 86 109 99 122 150 136 145 163 163
202 204 165 62 273 50 238 290 357 98 102 128 142 141 148 144 155 147 133 120 114 93 72 73 84 83 72 78 72 76 86 98 99 60 81 101 132 125 114 100 97 81 83 103 136 129 124 118 99
152 164 112 105 204 234 268 241 228 189 176 154 160 156 156 151 159 150 143 139 131 99 95 77 71 82 87 85 87 87 89 86 87 89 70 84 112 111 107 103 100 100 89 98 102 92 106 106 92
173 211 194 145 164 190 264 256 224 194 181 176 168 161 160 156 154 151 145 141 135 118 102 94 78 86 88 96 98 98 101 100 101 90 79 81 88 101 110 107 102 97 92 83 97 92 90 97 97
203 205 198 142 231 219 168 270 281 187 176 165 167 162 160 156 149 146 145 150 150 134 125 105 88 90 88 86 83 83 93 92 94 94 91 94 96 96 105 111 105 99 90 75 88 94 100 102 100